SCP
0 0 0 0 0 0 0 0 0 0 0 0 0 0 0 0 0 0 0 0 0 0 0 0 0 0 0 0 0 0 0 0 0 0 0 0 0 0 0 0 0 0 0
0 0 0 0 0 0 0 0 0 0 0 0 0 0 0 0 0 0 0 0 0 0 0 0 0 0 0 0 0 0 0 0 0 0 0 0 0 0 0 0 0 0 0
0 0 0 0 0 0 0 0 0 0 0 0 0 0 0 0 0 0 0 0 0 0 0 0 0 0 0 0 0 0 0 0 0 0 0 0 0 0 0 0 0 0 0
0 0 0 0 0 0 0 0 0 0 0 0 0 0 0 0 0 0 0 0 0 0 0 0 0 0 0 0 0 0 0 0 0 0 0 0 0 0 0 0 0 0 0
0 0 0 0 0 0 0 0 0 0 0 0 0 0 0 0 0 0 0 0 0 0 1 1 1 0 0 0 0 0 0 0 0 0 0 0 0 0 0 0 0 0 0
0 0 0 0 0 0 0 0 0 0 0 0 0 0 0 0 0 0 0 0 0 1 1 1 1 1 1 1 1 1 1 0 0 0 0 0 0 0 0 0 0 0 0
0 0 0 0 0 0 0 0 0 0 0 0 0 0 0 0 0 0 0 0 1 1 1 1 1 1 1 1 1 1 1 1 1 1 1 0 0 0 0 0 0 0 0
0 0 0 0 0 0 0 0 0 0 0 0 0 0 0 0 0 0 0 0 1 1 1 1 1 1 1 1 1 1 1 1 1 1 1 1 1 0 0 0 0 0 0
0 0 0 0 0 0 0 0 0 0 0 0 0 0 0 0 0 0 0 0 1 1 1 1 1 1 1 1 1 1 1 1 1 1 1 1 1 1 0 0 0 0 0
0 0 0 0 0 0 0 0 0 1 1 1 1 1 1 1 0 0 0 0 1 1 1 1 1 1 1 1 1 1 1 1 1 1 1 1 1 1 1 0 0 0 0
0 0 1 1 1 0 0 0 1 1 1 1 1 1 1 1 1 1 0 0 1 1 1 1 1 1 1 1 1 1 1 1 1 1 1 1 1 1 1 1 0 0 0
1 1 1 1 1 1 1 1 1 1 1 1 1 1 1 1 1 1 1 0 1 1 1 1 1 1 1 1 1 1 1 0 0 0 1 1 1 1 1 1 0 0 0
1 1 1 1 1 1 1 1 1 1 1 1 1 1 1 1 1 1 1 1 1 1 1 1 1 1 1 1 1 0 0 0 0 0 0 0 0 0 0 0 0 0 0
1 1 1 1 1 1 1 1 1 1 1 1 1 1 1 1 1 1 1 1 1 0 1 1 1 1 1 1 0 0 0 0 0 0 0 0 0 0 0 0 0 0 0
1 1 1 1 1 1 1 1 1 1 1 1 1 1 1 1 1 1 1 1 1 0 0 1 1 1 1 1 0 0 0 0 0 0 0 0 0 0 0 0 0 0 0
1 1 1 1 1 1 1 1 1 1 1 1 1 1 1 1 1 1 1 1 1 1 1 1 1 1 1 1 0 0 0 0 0 0 0 0 0 0 0 0 0 0 0
1 1 1 1 1 1 1 1 1 1 1 1 1 1 1 1 1 1 1 1 1 1 1 1 1 1 1 1 1 1 1 0 0 0 0 0 0 0 0 0 0 0 0
1 1 1 1 1 1 1 1 1 1 1 1 1 1 1 1 1 1 1 0 1 1 1 1 1 1 1 1 1 1 1 1 0 0 0 0 0 0 0 0 0 0 0
1 1 1 1 1 1 1 1 1 1 1 1 1 1 1 1 1 1 1 1 1 1 1 1 1 1 1 1 1 1 1 1 1 0 0 0 0 0 0 0 0 0 0
1 1 1 1 1 1 1 1 1 1 1 1 1 1 1 1 1 1 1 1 1 1 1 1 1 1 1 1 1 1 1 1 1 1 0 0 0 0 0 0 0 0 0
1 1 1 1 1 1 1 1 1 1 1 1 1 1 1 1 1 1 0 1 1 1 1 1 1 1 1 1 1 1 0 1 1 1 1 0 0 0 0 0 0 0 0
1 1 1 1 1 1 1 1 1 1 1 1 1 1 1 1 1 0 0 0 0 0 0 1 1 1 1 1 1 1 1 1 1 1 1 1 1 0 0 0 0 0 0
2 2 2 2 1 1 1 0 1 1 1 1 1 1 1 1 1 1 1 0 0 0 0 0 1 1 1 1 1 1 1 1 1 1 1 1 1 1 0 0 0 0 0
2 2 2 2 2 1 1 0 0 1 1 1 1 1 1 1 1 1 1 1 1 0 0 0 0 1 1 1 1 1 1 1 1 1 1 1 1 1 0 0 0 0 0
2 2 2 2 2 2 1 0 0 1 1 1 1 1 1 1 1 1 1 1 1 1 1 0 0 0 1 1 1 1 1 1 1 1 1 1 1 1 0 0 0 0 0
2 2 2 2 2 2 1 0 0 1 1 1 1 1 1 1 1 1 1 1 1 1 1 1 0 0 0 0 0 1 1 1 1 1 1 1 1 1 0 0 0 0 0
Wind_Speed
2 2 2 2 2 3 3 2 2 3 2 3 3 3 2 2 3 4 5 12 12 11 10 10 9 9 9 9 9 9 9 10 9 8 8 8 9 9 9 8 9 9 9
2 2 2 1 1 2 3 3 3 2 1 1 2 3 3 2 2 4 5 8 11 11 10 10 9 9 9 9 10 10 10 10 10 9 9 8 8 8 9 9 9 9 9
3 2 1 1 2 2 3 2 2 2 2 2 2 3 3 2 2 4 5 5 6 9 11 10 10 10 10 10 10 10 10 11 10 10 9 9 9 9 9 9 9 9 9
2 2 2 1 2 2 2 2 2 2 1 2 2 2 2 3 3 4 4 5 5 5 9 12 11 10 10 10 10 10 10 10 11 10 10 10 10 9 9 9 9 8 9
2 2 2 1 1 2 2 2 2 1 2 2 2 3 3 3 3 3 4 5 4 4 5 8 11 10 11 10 10 10 10 10 10 11 11 11 10 10 9 9 9 9 9
2 1 1 1 1 1 1 1 1 2 2 2 3 2 2 3 3 3 4 4 4 5 6 6 6 7 10 9 10 10 10 10 11 11 12 12 12 10 10 10 11 11 11
2 2 1 1 1 1 1 2 1 2 1 2 1 1 2 3 3 3 3 2 4 4 4 5 5 4 5 9 9 9 9 10 10 10 11 12 12 11 11 11 11 11 11
2 2 2 1 1 1 1 2 1 1 2 2 1 1 1 1 2 2 2 3 2 2 3 5 5 5 4 4 6 9 9 9 10 10 10 10 11 12 12 12 11 11 12
1 0 2 1 1 1 1 2 2 2 2 2 1 1 1 1 1 1 1 2 2 2 2 2 4 4 4 3 4 7 9 8 9 9 10 10 9 10 10 11 11 11 11
1 1 2 1 1 1 1 2 2 2 2 2 1 1 1 1 1 1 1 1 2 2 3 3 3 3 3 2 3 5 7 7 7 8 8 8 8 9 10 10 11 12 12
1 1 2 1 1 1 1 1 0 1 1 2 2 1 1 1 2 1 2 1 1 2 2 2 1 2 3 3 3 4 6 6 6 6 7 7 7 8 8 9 10 10 10
1 1 2 2 1 1 1 1 1 2 2 2 2 2 1 2 2 2 2 2 1 2 2 1 2 2 2 2 2 4 6 5 5 5 5 5 6 7 7 8 9 9 9
1 1 1 1 1 1 2 1 2 2 2 2 2 2 2 2 1 1 1 2 1 1 1 1 2 2 3 3 3 5 5 6 5 5 5 5 5 6 6 6 7 8 8
0 1 2 1 1 2 2 1 1 2 1 2 3 2 2 2 2 1 1 1 1 1 1 2 1 2 2 3 4 5 4 6 6 6 5 5 5 5 5 5 5 6 5
1 2 2 1 1 1 1 1 1 1 1 2 2 2 2 2 2 2 1 1 1 2 2 2 1 2 2 2 4 3 3 5 6 5 5 5 5 5 4 4 4 4 4
0 1 1 1 1 1 1 1 1 1 1 1 2 2 2 2 2 2 2 2 1 2 2 1 1 1 1 1 3 2 3 5 6 6 6 5 5 5 4 4 4 4 4
0 0 1 1 1 1 1 1 2 2 2 2 3 2 2 3 2 2 2 2 1 1 2 1 1 1 1 1 2 2 2 4 4 7 7 6 6 5 5 4 4 4 5
1 1 1 1 2 1 1 2 3 2 2 2 2 2 3 2 2 2 2 2 2 1 2 2 1 1 2 2 2 3 2 3 3 6 8 7 6 6 5 5 5 5 5
2 2 2 2 2 1 1 2 2 2 2 2 2 2 3 2 2 2 2 2 2 2 1 2 2 2 1 1 1 2 2 1 3 4 7 7 7 6 6 5 5 4 4
3 3 2 2 2 2 2 2 2 3 2 2 2 2 2 2 2 2 2 2 2 2 2 2 2 2 1 1 1 2 2 2 2 3 3 5 6 7 6 6 5 5 4
4 3 3 3 3 3 2 1 2 3 3 3 2 2 2 1 1 2 2 2 2 2 2 2 2 1 1 1 2 2 2 1 2 2 2 3 4 4 4 5 5 6 6
3 3 4 3 3 3 2 2 2 3 3 3 3 2 2 3 3 3 4 4 3 3 2 2 2 2 2 2 2 2 1 1 2 1 2 2 3 3 4 4 6 8 8
4 4 4 4 3 2 2 2 2 4 4 3 3 3 4 3 2 1 3 4 5 6 6 4 4 3 3 2 2 3 3 2 3 2 2 2 2 2 3 4 10 10 9
3 4 4 4 3 3 3 3 3 4 4 4 4 4 4 3 3 2 3 3 3 4 5 5 4 4 3 2 3 4 4 3 3 2 3 2 2 2 2 2 8 10 10
4 4 5 4 4 3 5 4 3 4 4 4 5 5 4 4 3 3 3 3 3 3 5 5 6 5 5 5 4 2 3 2 3 3 2 2 2 1 1 2 4 9 9
4 4 4 4 4 4 5 6 5 3 4 4 4 4 4 4 5 4 3 3 4 4 3 3 3 5 6 6 7 5 4 3 3 3 2 2 2 1 1 1 2 4 5
Wind_Direction
112 122 130 142 151 143 151 176 179 173 181 195 207 203 230 207 154 152 153 172 178 184 187 191 197 202 204 205 207 208 206 207 208 208 209 211 209 207 205 206 206 205 207
117 115 131 142 144 142 143 162 163 159 185 198 211 200 215 219 166 158 158 178 186 188 190 194 199 203 207 211 212 214 213 213 211 210 212 214 211 211 212 211 211 210 210
127 135 148 166 159 143 136 155 154 149 191 203 213 213 203 211 189 170 170 171 182 193 195 197 203 210 214 216 216 216 217 217 213 213 215 213 213 216 218 216 218 218 214
134 138 153 163 152 151 160 176 174 167 187 211 219 221 204 199 199 184 186 182 180 186 195 200 205 213 218 220 220 218 217 216 213 214 215 214 214 216 215 214 218 219 219
140 149 135 148 196 173 171 198 148 164 199 216 228 222 211 201 187 203 196 193 186 181 179 194 203 211 216 219 220 223 218 216 214 215 216 216 216 217 217 217 220 222 222
148 144 155 166 202 167 159 141 149 194 209 220 246 241 232 204 192 201 206 198 191 195 187 185 192 208 214 217 221 222 220 219 217 216 219 221 220 220 221 224 224 225 223
150 161 150 156 201 166 169 178 179 198 226 224 231 261 252 221 200 200 201 205 197 198 187 180 184 188 199 215 221 222 223 222 218 217 221 224 223 221 222 225 225 224 223
163 174 150 185 195 159 187 206 186 204 236 213 203 205 261 259 252 212 181 201 198 196 194 192 186 190 195 183 206 218 226 226 222 220 222 224 225 225 225 224 224 223 223
141 113 124 173 163 177 192 216 206 211 235 255 215 197 231 243 284 247 212 191 180 177 202 214 197 197 202 182 182 206 217 222 224 226 227 227 228 226 223 224 224 224 224
151 152 144 163 189 249 185 225 197 228 218 248 254 230 216 201 213 263 276 231 194 193 206 220 198 178 184 178 177 180 195 209 216 223 228 230 228 226 225 226 229 229 226
191 186 154 161 188 230 241 265 64 247 253 255 259 245 247 242 225 215 251 241 230 226 209 210 181 177 177 179 180 182 180 196 210 219 227 229 228 226 225 227 231 232 230
187 186 160 167 189 215 249 255 241 253 267 280 286 283 264 255 241 224 241 236 222 225 198 184 177 182 178 171 179 162 164 176 193 210 218 231 239 233 230 231 234 232 229
162 167 165 159 184 214 228 235 232 244 260 271 268 280 282 274 279 258 232 254 253 229 214 197 192 180 176 164 161 158 163 176 185 199 205 214 231 237 231 231 233 234 230
156 159 157 160 183 214 228 208 251 246 252 273 279 284 281 281 281 268 238 232 260 261 234 210 182 179 178 159 163 168 175 180 187 191 196 200 213 225 228 228 230 232 230
212 135 142 156 182 194 219 252 242 268 267 271 279 279 285 290 294 295 277 234 222 247 259 222 190 191 174 151 157 169 162 171 184 186 195 202 207 211 216 214 216 222 222
352 89 131 174 184 169 213 248 255 250 257 274 270 284 287 286 286 281 273 271 246 229 261 263 200 151 148 206 169 183 175 165 186 196 195 196 202 204 207 214 216 218 220
200 169 197 214 195 187 217 243 258 252 250 257 266 260 267 275 290 294 287 279 264 236 246 273 277 193 173 209 179 211 187 182 190 196 190 191 200 206 207 217 222 222 222
200 202 187 216 235 216 222 251 261 260 258 263 270 270 272 274 275 290 300 296 283 249 224 250 268 263 231 213 210 224 210 205 183 189 189 193 197 202 205 208 214 217 215
207 204 193 218 249 247 233 247 260 269 267 268 268 267 274 276 282 290 282 283 281 283 231 228 246 240 231 231 236 245 223 208 209 185 181 186 194 203 207 206 207 205 203
212 210 210 219 234 235 237 252 264 263 266 267 269 274 283 277 273 277 273 283 286 282 268 246 242 233 233 251 242 244 235 217 226 210 182 184 193 200 205 201 199 195 192
216 213 222 226 236 226 232 248 280 261 260 258 260 255 253 260 268 262 270 274 277 273 271 264 257 249 239 247 255 257 252 242 238 207 179 193 184 192 201 205 205 202 197
223 216 223 228 240 240 221 219 259 284 270 259 264 261 234 219 221 230 235 242 241 249 261 259 263 263 257 248 255 266 264 258 264 232 202 225 189 193 194 195 199 196 195
229 232 232 229 227 221 209 208 249 275 270 258 256 260 268 251 212 222 245 237 239 238 232 236 252 257 257 252 254 265 262 259 259 242 217 236 218 219 212 189 183 189 195
233 237 238 232 227 208 206 209 245 259 259 255 253 250 250 248 242 236 249 251 247 241 231 227 240 253 255 243 235 243 251 253 248 237 208 222 225 227 218 178 187 188 195
235 237 238 230 226 207 210 216 220 258 251 251 250 249 237 227 226 221 232 251 261 265 260 250 240 242 243 244 236 244 249 236 251 245 207 210 227 220 214 196 190 192 196
228 242 247 232 222 209 205 212 216 246 256 255 248 237 225 222 204 204 226 247 254 260 274 276 262 251 241 240 227 218 232 237 241 249 212 197 225 217 233 207 170 179 196